,,Stat6,,Stat2,,Stat8,,Stat9,,Stat10,,Wind1,,Wind1,
time,status,PA1M_AVG,status,PR1M_SUM,status,RH1M_AVG,status,SR1M_AVG,status,TA1M_AVG,status,W1dAve1m,status,W1sAve1m,
2004-10-05, 00:00:00,VALID,920.628,VALID,0,VALID,98.8673,VALID,-0.0509425,VALID,18.162,VALID,96,VALID,0.62064,
2004-10-05, 00:01:00,VALID,920.619,VALID,0,VALID,98.8355,VALID,-0.0679233,VALID,18.1295,VALID,66,VALID,0.884375,
2004-10-05, 00:02:00,VALID,920.611,VALID,0,VALID,98.3421,VALID,-0.0849042,VALID,18.0815,VALID,52,VALID,0.693668,
2004-10-05, 00:03:00,VALID,920.593,VALID,0,VALID,97.8716,VALID,0.0339617,VALID,17.9702,VALID,52,VALID,0.821378,
2004-10-05, 00:04:00,VALID,920.583,VALID,0,VALID,98.2213,VALID,0.0169808,VALID,17.9089,VALID,52,VALID,0.739644,
2004-10-05, 00:05:00,VALID,920.566,VALID,0,VALID,98.4336,VALID,0,VALID,17.8895,VALID,52,VALID,0.685014,
2004-10-05, 00:06:00,VALID,920.554,VALID,0,VALID,98.5811,VALID,0.0169808,VALID,17.854,VALID,52,VALID,0.66226,
2004-10-05, 00:07:00,VALID,920.55,VALID,0,VALID,98.8952,VALID,0,VALID,17.8674,VALID,52,VALID,0.558416,
2004-10-05, 00:08:00,VALID,920.541,VALID,0,VALID,99.2424,VALID,0,VALID,17.8904,VALID,66,VALID,0.698552,
2004-10-05, 00:09:00,VALID,920.516,VALID,0,VALID,99.5933,VALID,0,VALID,17.9384,VALID,75,VALID,0.603601,
2004-10-05, 00:10:00,VALID,920.503,VALID,0,VALID,99.3212,VALID,0.0169808,VALID,17.9382,VALID,78,VALID,0.521341,
2004-10-05, 00:11:00,VALID,920.479,VALID,0,VALID,99.3047,VALID,0.0509425,VALID,17.9382,VALID,85,VALID,0.609908,
2004-10-05, 00:12:00,VALID,920.457,VALID,0,VALID,99.5247,VALID,0.0509425,VALID,17.9612,VALID,97,VALID,0.991655,
2004-10-05, 00:13:00,VALID,920.433,VALID,0,VALID,99.4484,VALID,0.0169808,VALID,17.9905,VALID,99,VALID,1.0774,
2004-10-05, 00:14:00,VALID,920.419,VALID,0,VALID,99.1763,VALID,-0.0169808,VALID,17.9963,VALID,87,VALID,0.68316,
2004-10-05, 00:15:00,VALID,920.414,VALID,0,VALID,99.0478,VALID,0,VALID,18.0255,VALID,101,VALID,0.719283,
2004-10-05, 00:16:00,VALID,920.391,VALID,0,VALID,99.1661,VALID,0,VALID,18.0352,VALID,105,VALID,0.73056,
2004-10-05, 00:17:00,VALID,920.383,VALID,0,VALID,99.1394,VALID,0.0339617,VALID,18.0578,VALID,105,VALID,0.877204,
2004-10-05, 00:18:00,VALID,920.367,VALID,0,VALID,99.0898,VALID,-0.0849042,VALID,18.0458,VALID,112,VALID,1.10957,
2004-10-05, 00:19:00,VALID,920.342,VALID,0,VALID,99.0071,VALID,-0.0849042,VALID,18.0624,VALID,118,VALID,1.22246,
2004-10-05, 00:20:00,VALID,920.323,VALID,0,VALID,98.9753,VALID,-0.0849042,VALID,18.0619,VALID,111,VALID,1.28163,
2004-10-05, 00:21:00,VALID,920.286,VALID,0,VALID,98.9143,VALID,-0.101885,VALID,18.0619,VALID,114,VALID,1.21239,
2004-10-05, 00:22:00,VALID,920.269,VALID,0,VALID,98.8851,VALID,-0.101885,VALID,18.0488,VALID,116,VALID,1.34793,
2004-10-05, 00:23:00,VALID,920.249,VALID,0,VALID,98.8863,VALID,-0.0679233,VALID,18.0234,VALID,126,VALID,1.18478,
2004-10-05, 00:24:00,VALID,920.231,VALID,0,VALID,98.9817,VALID,-0.0849042,VALID,18.0013,VALID,126,VALID,1.01278,
2004-10-05, 00:25:00,VALID,920.219,VALID,0,VALID,99.1152,VALID,-0.0679233,VALID,17.9716,VALID,122,VALID,1.08678,
2004-10-05, 00:26:00,VALID,920.195,VALID,0,VALID,99.3301,VALID,-0.101885,VALID,17.9524,VALID,129,VALID,1.05504,
2004-10-05, 00:27:00,VALID,920.177,VALID,0,VALID,99.4102,VALID,-0.0679233,VALID,17.9425,VALID,122,VALID,0.836293,
2004-10-05, 00:28:00,VALID,920.159,VALID,0,VALID,99.4547,VALID,-0.0679233,VALID,17.9199,VALID,123,VALID,0.619191,
2004-10-05, 00:29:00,VALID,920.156,VALID,0,VALID,99.5018,VALID,-0.0679233,VALID,17.9012,VALID,114,VALID,0.989769,
2004-10-05, 00:30:00,VALID,920.147,VALID,0,VALID,99.6366,VALID,-0.0849042,VALID,17.8874,VALID,109,VALID,1.08498,
2004-10-05, 00:31:00,VALID,920.149,VALID,0,VALID,99.7548,VALID,-0.0679233,VALID,17.8975,VALID,110,VALID,0.969993,
2004-10-05, 00:32:00,VALID,920.138,VALID,0,VALID,99.8299,VALID,-0.101885,VALID,17.8975,VALID,113,VALID,0.999273,
2004-10-05, 00:33:00,VALID,920.137,VALID,0,VALID,99.7981,VALID,0,VALID,17.8994,VALID,118,VALID,0.989524,
2004-10-05, 00:34:00,VALID,920.128,VALID,0,VALID,99.7765,VALID,-0.0169808,VALID,17.8934,VALID,118,VALID,1.35082,
2004-10-05, 00:35:00,VALID,920.13,VALID,0,VALID,99.7281,VALID,0,VALID,17.8936,VALID,119,VALID,1.43605,
2004-10-05, 00:36:00,VALID,920.109,VALID,0,VALID,99.6607,VALID,0,VALID,17.8872,VALID,117,VALID,1.4758,
2004-10-05, 00:37:00,VALID,920.095,VALID,0,VALID,99.5895,VALID,-0.0169808,VALID,17.8708,VALID,113,VALID,1.56286,
2004-10-05, 00:38:00,VALID,920.075,VALID,0,VALID,99.6162,VALID,-0.0169808,VALID,17.8674,VALID,113,VALID,1.5776,
2004-10-05, 00:39:00,VALID,920.057,VALID,0,VALID,99.5539,VALID,0,VALID,17.8738,VALID,109,VALID,1.33066,
2004-10-05, 00:40:00,VALID,920.064,VALID,0,VALID,99.4929,VALID,0,VALID,17.871,VALID,121,VALID,0.980841,
2004-10-05, 00:41:00,VALID,920.053,VALID,0,VALID,99.5069,VALID,0.0169808,VALID,17.8614,VALID,122,VALID,0.921148,
2004-10-05, 00:42:00,VALID,920.034,VALID,0,VALID,99.5883,VALID,0,VALID,17.8577,VALID,126,VALID,1.21608,
2004-10-05, 00:43:00,VALID,920.046,VALID,0,VALID,99.6022,VALID,0,VALID,17.8611,VALID,124,VALID,1.10956,
2004-10-05, 00:44:00,VALID,920.027,VALID,0,VALID,99.531,VALID,0,VALID,17.8715,VALID,122,VALID,1.08993,
2004-10-05, 00:45:00,VALID,920.022,VALID,0,VALID,99.4408,VALID,0,VALID,17.8545,VALID,105,VALID,1.13449,
2004-10-05, 00:46:00,VALID,920.009,VALID,0,VALID,99.4446,VALID,-0.0169808,VALID,17.8616,VALID,102,VALID,1.27184,
2004-10-05, 00:47:00,VALID,919.994,VALID,0,VALID,99.6086,VALID,-0.0169808,VALID,17.8579,VALID,116,VALID,1.36861,
2004-10-05, 00:48:00,VALID,919.984,VALID,0,VALID,99.6493,VALID,0,VALID,17.8706,VALID,127,VALID,1.3584,
2004-10-05, 00:49:00,VALID,919.985,VALID,0,VALID,99.662,VALID,-0.0169808,VALID,17.8807,VALID,131,VALID,1.39748,
2004-10-05, 00:50:00,VALID,919.982,VALID,0,VALID,99.7052,VALID,0,VALID,17.8807,VALID,126,VALID,1.21003,
2004-10-05, 00:51:00,VALID,919.97,VALID,0,VALID,99.7167,VALID,0,VALID,17.8706,VALID,126,VALID,1.40625,
2004-10-05, 00:52:00,VALID,919.968,VALID,0,VALID,99.6811,VALID,0,VALID,17.8646,VALID,117,VALID,1.13663,
2004-10-05, 00:53:00,VALID,919.933,VALID,0,VALID,99.5755,VALID,-0.0169808,VALID,17.8319,VALID,113,VALID,1.07413,
2004-10-05, 00:54:00,VALID,919.917,VALID,0,VALID,99.4827,VALID,-0.0339617,VALID,17.8424,VALID,101,VALID,1.12109,
2004-10-05, 00:55:00,VALID,919.906,VALID,0,VALID,99.3797,VALID,-0.0169808,VALID,17.8323,VALID,97,VALID,1.08721,
2004-10-05, 00:56:00,VALID,919.885,VALID,0,VALID,99.264,VALID,-0.0509425,VALID,17.8355,VALID,115,VALID,1.08043,
2004-10-05, 00:57:00,VALID,919.878,VALID,0,VALID,99.1381,VALID,-0.0169808,VALID,17.8295,VALID,105,VALID,1.28255,
2004-10-05, 00:58:00,VALID,919.873,VALID,0,VALID,99.0287,VALID,-0.0339617,VALID,17.8383,VALID,117,VALID,1.18306,
2004-10-05, 00:59:00,VALID,919.868,VALID,0,VALID,98.8851,VALID,-0.0169808,VALID,17.8549,VALID,115,VALID,1.02598,
2004-10-05, 01:00:00,VALID,919.842,VALID,0,VALID,98.8151,VALID,-0.0339617,VALID,17.8549,VALID,124,VALID,1.16542,
2004-10-05, 01:01:00,VALID,919.824,VALID,0,VALID,98.7058,VALID,-0.0339617,VALID,17.8584,VALID,108,VALID,0.912997,
2004-10-05, 01:02:00,VALID,919.782,VALID,0,VALID,98.5557,VALID,-0.0169808,VALID,17.8872,VALID,107,VALID,1.12386,
2004-10-05, 01:03:00,VALID,919.752,VALID,0,VALID,98.4286,VALID,0,VALID,17.9033,VALID,115,VALID,0.954397,
2004-10-05, 01:04:00,VALID,919.735,VALID,0,VALID,98.309,VALID,-0.0339617,VALID,17.9061,VALID,118,VALID,0.978198,
2004-10-05, 01:05:00,VALID,919.722,VALID,0,VALID,98.1691,VALID,-0.0339617,VALID,17.9261,VALID,126,VALID,0.906424,
2004-10-05, 01:06:00,VALID,919.726,VALID,0,VALID,98.0623,VALID,-0.0509425,VALID,17.9425,VALID,132,VALID,1.20084,
2004-10-05, 01:07:00,VALID,919.733,VALID,0,VALID,97.9708,VALID,-0.0339617,VALID,17.9418,VALID,131,VALID,1.31138,
2004-10-05, 01:08:00,VALID,919.722,VALID,0,VALID,97.8258,VALID,-0.0169808,VALID,17.9616,VALID,128,VALID,1.2434,
2004-10-05, 01:09:00,VALID,919.705,VALID,0,VALID,97.6694,VALID,-0.0169808,VALID,17.981,VALID,122,VALID,0.86543,
2004-10-05, 01:10:00,VALID,919.699,VALID,0,VALID,97.616,VALID,-0.0169808,VALID,17.9681,VALID,121,VALID,0.620276,
2004-10-05, 01:11:00,VALID,919.679,VALID,0,VALID,97.6376,VALID,-0.0169808,VALID,17.9778,VALID,96,VALID,0.671094,
2004-10-05, 01:12:00,VALID,919.671,VALID,0,VALID,97.6745,VALID,-0.0339617,VALID,17.9815,VALID,100,VALID,0.581577,
2004-10-05, 01:13:00,VALID,919.666,VALID,0,VALID,97.6465,VALID,0,VALID,17.955,VALID,103,VALID,0.682049,
2004-10-05, 01:14:00,VALID,919.674,VALID,0,VALID,97.5804,VALID,0,VALID,17.9487,VALID,104,VALID,0.74628,
2004-10-05, 01:15:00,VALID,919.658,VALID,0,VALID,97.6516,VALID,-0.0169808,VALID,17.9388,VALID,91,VALID,0.746548,
2004-10-05, 01:16:00,VALID,919.64,VALID,0,VALID,97.705,VALID,-0.0169808,VALID,17.9324,VALID,64,VALID,0.627131,
2004-10-05, 01:17:00,VALID,919.633,VALID,0,VALID,97.6847,VALID,0,VALID,17.9188,VALID,107,VALID,0.877046,
2004-10-05, 01:18:00,VALID,919.618,VALID,0,VALID,97.5537,VALID,-0.0679233,VALID,17.9075,VALID,111,VALID,1.08812,
2004-10-05, 01:19:00,VALID,919.589,VALID,0,VALID,97.5511,VALID,-0.0849042,VALID,17.8943,VALID,106,VALID,0.87718,
2004-10-05, 01:20:00,VALID,919.573,VALID,0,VALID,97.5779,VALID,-0.0509425,VALID,17.8812,VALID,108,VALID,0.955729,
2004-10-05, 01:21:00,VALID,919.559,VALID,0,VALID,97.5791,VALID,-0.0849042,VALID,17.8784,VALID,118,VALID,1.3125,
2004-10-05, 01:22:00,VALID,919.553,VALID,0,VALID,97.5715,VALID,-0.0849042,VALID,17.8689,VALID,118,VALID,1.09933,
2004-10-05, 01:23:00,VALID,919.547,VALID,0,VALID,97.5473,VALID,-0.0849042,VALID,17.8791,VALID,97,VALID,0.967507,
2004-10-05, 01:24:00,VALID,919.536,VALID,0,VALID,97.5155,VALID,-0.0509425,VALID,17.8625,VALID,98,VALID,0.815549,
2004-10-05, 01:25:00,VALID,919.521,VALID,0,VALID,97.5689,VALID,-0.0679233,VALID,17.8593,VALID,92,VALID,0.821555,
2004-10-05, 01:26:00,VALID,919.524,VALID,0,VALID,97.6923,VALID,-0.101885,VALID,17.8397,VALID,70,VALID,0.739183,
2004-10-05, 01:27:00,VALID,919.515,VALID,0,VALID,97.8678,VALID,-0.0849042,VALID,17.8362,VALID,61,VALID,0.61471,
2004-10-05, 01:28:00,VALID,919.515,VALID,0,VALID,98.0165,VALID,-0.101885,VALID,17.8334,VALID,61,VALID,0.702431,
2004-10-05, 01:29:00,VALID,919.515,VALID,0,VALID,98.0801,VALID,-0.0849042,VALID,17.8337,VALID,60,VALID,0.550781,
2004-10-05, 01:30:00,VALID,919.489,VALID,0,VALID,98.1094,VALID,-0.101885,VALID,17.8104,VALID,60,VALID,0.504464,
2004-10-05, 01:31:00,VALID,919.487,VALID,0,VALID,98.1501,VALID,-0.0849042,VALID,17.8205,VALID,70,VALID,0.540551,
2004-10-05, 01:32:00,VALID,919.471,VALID,0,VALID,98.0331,VALID,-0.101885,VALID,17.8207,VALID,85,VALID,0.497461,
2004-10-05, 01:33:00,VALID,919.458,VALID,0,VALID,97.7966,VALID,0,VALID,17.8229,VALID,79,VALID,0.6375,
2004-10-05, 01:34:00,VALID,919.442,VALID,0,VALID,97.5066,VALID,0,VALID,17.8383,VALID,83,VALID,0.657853,
2004-10-05, 01:35:00,VALID,919.423,VALID,0,VALID,97.1544,VALID,0,VALID,17.874,VALID,94,VALID,0.724077,
2004-10-05, 01:36:00,VALID,919.428,VALID,0,VALID,96.8899,VALID,0.0339617,VALID,17.913,VALID,110,VALID,0.472284,
2004-10-05, 01:37:00,VALID,919.416,VALID,0,VALID,96.7869,VALID,0.0169808,VALID,17.9291,VALID,109,VALID,0.477289,
2004-10-05, 01:38:00,VALID,919.422,VALID,0,VALID,96.675,VALID,0.0339617,VALID,17.9089,VALID,108,VALID,0.548242,
2004-10-05, 01:39:00,VALID,919.408,VALID,0,VALID,96.511,VALID,0.0339617,VALID,17.9255,VALID,108,VALID,0.489281,
2004-10-05, 01:40:00,VALID,919.376,VALID,0,VALID,96.2732,VALID,0.0169808,VALID,17.9285,VALID,108,VALID,0.783381,
2004-10-05, 01:41:00,VALID,919.363,VALID,0,VALID,95.982,VALID,0.0169808,VALID,17.9577,VALID,109,VALID,0.836664,
2004-10-05, 01:42:00,VALID,919.355,VALID,0,VALID,95.8701,VALID,0.0169808,VALID,17.9806,VALID,109,VALID,0.624112,
2004-10-05, 01:43:00,VALID,919.361,VALID,0,VALID,95.8357,VALID,0.0339617,VALID,17.9932,VALID,107,VALID,0.57867,
2004-10-05, 01:44:00,VALID,919.367,VALID,0,VALID,95.9171,VALID,0,VALID,18.0029,VALID,112,VALID,0.566692,
2004-10-05, 01:45:00,VALID,919.382,VALID,0,VALID,96.0125,VALID,0.0169808,VALID,18.0002,VALID,119,VALID,0.75436,
2004-10-05, 01:46:00,VALID,919.391,VALID,0,VALID,96.1651,VALID,0,VALID,17.9741,VALID,124,VALID,0.88418,
2004-10-05, 01:47:00,VALID,919.39,VALID,0,VALID,96.2808,VALID,0,VALID,17.9287,VALID,121,VALID,1.17292,
2004-10-05, 01:48:00,VALID,919.379,VALID,0,VALID,96.4003,VALID,-0.101885,VALID,17.9171,VALID,119,VALID,1.10434,
2004-10-05, 01:49:00,VALID,919.367,VALID,0,VALID,96.469,VALID,-0.0679233,VALID,17.9178,VALID,116,VALID,0.849306,
2004-10-05, 01:50:00,VALID,919.35,VALID,0,VALID,96.5555,VALID,-0.101885,VALID,17.9017,VALID,105,VALID,0.892882,
2004-10-05, 01:51:00,VALID,919.342,VALID,0,VALID,96.5567,VALID,-0.101885,VALID,17.892,VALID,106,VALID,0.847124,
2004-10-05, 01:52:00,VALID,919.325,VALID,0,VALID,96.5949,VALID,-0.101885,VALID,17.8657,VALID,117,VALID,0.828125,
2004-10-05, 01:53:00,VALID,919.315,VALID,0,VALID,96.6903,VALID,-0.0849042,VALID,17.8493,VALID,124,VALID,0.531068,
2004-10-05, 01:54:00,VALID,919.294,VALID,0,VALID,96.839,VALID,-0.0679233,VALID,17.8461,VALID,125,VALID,0.625727,
2004-10-05, 01:55:00,VALID,919.296,VALID,0,VALID,96.9967,VALID,-0.0849042,VALID,17.8203,VALID,125,VALID,0.810697,
2004-10-05, 01:56:00,VALID,919.3,VALID,0,VALID,97.3401,VALID,-0.0849042,VALID,17.8078,VALID,127,VALID,0.910065,
2004-10-05, 01:57:00,VALID,919.302,VALID,0,VALID,97.6491,VALID,-0.101885,VALID,17.788,VALID,130,VALID,0.819336,
2004-10-05, 01:58:00,VALID,919.305,VALID,0,VALID,97.7711,VALID,-0.0849042,VALID,17.7822,VALID,113,VALID,0.72928,
2004-10-05, 01:59:00,VALID,919.295,VALID,0,VALID,97.7749,VALID,-0.101885,VALID,17.7689,VALID,96,VALID,0.709766,
2004-10-05, 02:00:00,VALID,919.295,VALID,0,VALID,97.8856,VALID,-0.0849042,VALID,17.7725,VALID,102,VALID,1.00167,
2004-10-05, 02:01:00,VALID,919.298,VALID,0,VALID,97.864,VALID,-0.0849042,VALID,17.7661,VALID,101,VALID,1.05547,
2004-10-05, 02:02:00,VALID,919.291,VALID,0,VALID,97.7406,VALID,-0.101885,VALID,17.7624,VALID,94,VALID,1.15376,
2004-10-05, 02:03:00,VALID,919.264,VALID,0,VALID,97.5257,VALID,-0.0169808,VALID,17.7645,VALID,104,VALID,1.29469,
2004-10-05, 02:04:00,VALID,919.287,VALID,0,VALID,97.2777,VALID,0.0339617,VALID,17.7772,VALID,110,VALID,1.2832,
2004-10-05, 02:05:00,VALID,919.283,VALID,0,VALID,96.923,VALID,0.0169808,VALID,17.8028,VALID,111,VALID,1.46378,
2004-10-05, 02:06:00,VALID,919.278,VALID,0,VALID,96.6788,VALID,0,VALID,17.8256,VALID,117,VALID,1.59821,
2004-10-05, 02:07:00,VALID,919.268,VALID,0,VALID,96.5415,VALID,0,VALID,17.8316,VALID,118,VALID,1.13895,
2004-10-05, 02:08:00,VALID,919.268,VALID,0,VALID,96.3495,VALID,0,VALID,17.8512,VALID,110,VALID,1.31326,
2004-10-05, 02:09:00,VALID,919.241,VALID,0,VALID,96.2401,VALID,0,VALID,17.8515,VALID,106,VALID,1.4173,
2004-10-05, 02:10:00,VALID,919.228,VALID,0,VALID,96.2287,VALID,0,VALID,17.8581,VALID,98,VALID,1.07227,
2004-10-05, 02:11:00,VALID,919.218,VALID,0,VALID,96.2401,VALID,0.0169808,VALID,17.8385,VALID,94,VALID,1.11979,
2004-10-05, 02:12:00,VALID,919.209,VALID,0,VALID,96.2338,VALID,0.0509425,VALID,17.8224,VALID,102,VALID,1.10781,
2004-10-05, 02:13:00,VALID,919.208,VALID,0,VALID,96.2096,VALID,0.0169808,VALID,17.8291,VALID,87,VALID,1.02123,
2004-10-05, 02:14:00,VALID,919.192,VALID,0,VALID,96.1587,VALID,0.0169808,VALID,17.8157,VALID,93,VALID,1.12909,
2004-10-05, 02:15:00,VALID,919.178,VALID,0,VALID,96.1002,VALID,0.0169808,VALID,17.8259,VALID,102,VALID,1.0744,
2004-10-05, 02:16:00,VALID,919.163,VALID,0,VALID,96.0621,VALID,0,VALID,17.8058,VALID,114,VALID,1.30593,
2004-10-05, 02:17:00,VALID,919.144,VALID,0,VALID,96.0278,VALID,0.0169808,VALID,17.8192,VALID,115,VALID,1.35592,
2004-10-05, 02:18:00,VALID,919.137,VALID,0,VALID,95.8396,VALID,0,VALID,17.8355,VALID,118,VALID,1.43732,
2004-10-05, 02:19:00,VALID,919.124,VALID,0,VALID,95.7493,VALID,0,VALID,17.8381,VALID,125,VALID,1.60993,
2004-10-05, 02:20:00,VALID,919.105,VALID,0,VALID,95.6081,VALID,-0.0169808,VALID,17.8614,VALID,122,VALID,1.79078,
2004-10-05, 02:21:00,VALID,919.09,VALID,0,VALID,95.5357,VALID,-0.0169808,VALID,17.8674,VALID,122,VALID,1.83464,
2004-10-05, 02:22:00,VALID,919.091,VALID,0,VALID,95.5802,VALID,0,VALID,17.8837,VALID,118,VALID,1.66546,
2004-10-05, 02:23:00,VALID,919.104,VALID,0,VALID,95.6666,VALID,0.0169808,VALID,17.8641,VALID,115,VALID,1.28872,
2004-10-05, 02:24:00,VALID,919.104,VALID,0,VALID,95.6386,VALID,0,VALID,17.8713,VALID,115,VALID,1.35844,
2004-10-05, 02:25:00,VALID,919.099,VALID,0,VALID,95.6132,VALID,0,VALID,17.8542,VALID,113,VALID,1.20579,
2004-10-05, 02:26:00,VALID,919.086,VALID,0,VALID,95.6565,VALID,0.0169808,VALID,17.8639,VALID,104,VALID,1.12072,
2004-10-05, 02:27:00,VALID,919.095,VALID,0,VALID,95.6132,VALID,0.0339617,VALID,17.871,VALID,104,VALID,1.05256,
2004-10-05, 02:28:00,VALID,919.101,VALID,0,VALID,95.6348,VALID,0.0339617,VALID,17.8674,VALID,108,VALID,0.883358,
2004-10-05, 02:29:00,VALID,919.106,VALID,0,VALID,95.5382,VALID,0.0169808,VALID,17.8805,VALID,103,VALID,0.981707,
2004-10-05, 02:30:00,VALID,919.107,VALID,0,VALID,95.6018,VALID,0,VALID,17.89,VALID,114,VALID,0.892857,
2004-10-05, 02:31:00,VALID,919.119,VALID,0,VALID,95.7798,VALID,0.0339617,VALID,17.887,VALID,109,VALID,0.767671,
2004-10-05, 02:32:00,VALID,919.105,VALID,0,VALID,95.9184,VALID,0.0169808,VALID,17.8676,VALID,108,VALID,0.870999,
2004-10-05, 02:33:00,VALID,919.094,VALID,0,VALID,96.0583,VALID,0,VALID,17.8577,VALID,110,VALID,0.89043,
2004-10-05, 02:34:00,VALID,919.094,VALID,0,VALID,96.0138,VALID,0,VALID,17.8452,VALID,121,VALID,1.10547,
2004-10-05, 02:35:00,VALID,919.088,VALID,0,VALID,96.1295,VALID,0.0339617,VALID,17.8289,VALID,135,VALID,1.23136,
2004-10-05, 02:36:00,VALID,919.08,VALID,0,VALID,96.1727,VALID,0.0169808,VALID,17.8254,VALID,132,VALID,1.4407,
2004-10-05, 02:37:00,VALID,919.065,VALID,0,VALID,96.1257,VALID,0,VALID,17.8129,VALID,127,VALID,1.28906,
2004-10-05, 02:38:00,VALID,919.063,VALID,0,VALID,96.0507,VALID,0,VALID,17.8003,VALID,114,VALID,1.16104,
2004-10-05, 02:39:00,VALID,919.046,VALID,0,VALID,96.0417,VALID,-0.0169808,VALID,17.7609,VALID,110,VALID,0.893288,
2004-10-05, 02:40:00,VALID,919.029,VALID,0,VALID,95.8981,VALID,0,VALID,17.7486,VALID,109,VALID,0.979567,
2004-10-05, 02:41:00,VALID,919.029,VALID,0,VALID,95.8523,VALID,0,VALID,17.7479,VALID,112,VALID,0.969658,
2004-10-05, 02:42:00,VALID,919.018,VALID,0,VALID,95.809,VALID,0.0169808,VALID,17.7449,VALID,123,VALID,1.0668,
2004-10-05, 02:43:00,VALID,919.024,VALID,0,VALID,95.6615,VALID,-0.0169808,VALID,17.7413,VALID,114,VALID,0.641113,
2004-10-05, 02:44:00,VALID,919.014,VALID,0,VALID,95.584,VALID,0,VALID,17.7479,VALID,120,VALID,1.05711,
2004-10-05, 02:45:00,VALID,919.006,VALID,0,VALID,95.2432,VALID,0,VALID,17.7417,VALID,126,VALID,1.33666,
2004-10-05, 02:46:00,VALID,919.016,VALID,0,VALID,94.7892,VALID,0.0169808,VALID,17.7837,VALID,110,VALID,1.43973,
2004-10-05, 02:47:00,VALID,918.997,VALID,0,VALID,94.1992,VALID,0,VALID,17.8286,VALID,115,VALID,1.476,
2004-10-05, 02:48:00,VALID,918.98,VALID,0,VALID,93.7554,VALID,0,VALID,17.9162,VALID,118,VALID,1.49757,
2004-10-05, 02:49:00,VALID,918.972,VALID,0,VALID,93.5609,VALID,0,VALID,17.9605,VALID,131,VALID,1.30349,
2004-10-05, 02:50:00,VALID,918.973,VALID,0,VALID,93.4248,VALID,0.0169808,VALID,18.0128,VALID,124,VALID,1.29469,
2004-10-05, 02:51:00,VALID,918.972,VALID,0,VALID,93.4871,VALID,0.0339617,VALID,18.0191,VALID,126,VALID,0.924782,
2004-10-05, 02:52:00,VALID,918.981,VALID,0,VALID,93.6397,VALID,0.0339617,VALID,18.0223,VALID,126,VALID,0.908512,
2004-10-05, 02:53:00,VALID,918.988,VALID,0,VALID,93.7134,VALID,0,VALID,17.9863,VALID,119,VALID,1.11947,
2004-10-05, 02:54:00,VALID,919.004,VALID,0,VALID,93.4451,VALID,0,VALID,17.9806,VALID,117,VALID,1.12118,
2004-10-05, 02:55:00,VALID,919.012,VALID,0,VALID,93.3994,VALID,0,VALID,17.9937,VALID,119,VALID,1.1448,
2004-10-05, 02:56:00,VALID,919.01,VALID,0,VALID,93.4235,VALID,0,VALID,18.0029,VALID,126,VALID,1.00305,
2004-10-05, 02:57:00,VALID,919.006,VALID,0,VALID,93.2887,VALID,0,VALID,18.0032,VALID,120,VALID,1.16806,
2004-10-05, 02:58:00,VALID,918.994,VALID,0,VALID,93.1794,VALID,0.0169808,VALID,18.0124,VALID,124,VALID,1.24185,
2004-10-05, 02:59:00,VALID,918.994,VALID,0,VALID,93.3917,VALID,0,VALID,18.0292,VALID,125,VALID,1.11441,
2004-10-05, 03:00:00,VALID,918.994,VALID,0,VALID,93.7707,VALID,0.0169808,VALID,18.0064,VALID,128,VALID,1.02548,
2004-10-05, 03:01:00,VALID,919.01,VALID,0,VALID,94.1382,VALID,0,VALID,17.9778,VALID,126,VALID,0.752907,
2004-10-05, 03:02:00,VALID,919.008,VALID,0,VALID,94.2335,VALID,0.0169808,VALID,17.9418,VALID,117,VALID,0.85174,
2004-10-05, 03:03:00,VALID,919,VALID,0,VALID,94.1852,VALID,0.0169808,VALID,17.9096,VALID,117,VALID,0.724609,
2004-10-05, 03:04:00,VALID,919.015,VALID,0,VALID,93.9055,VALID,0,VALID,17.9059,VALID,115,VALID,0.803013,
2004-10-05, 03:05:00,VALID,919.003,VALID,0,VALID,93.7821,VALID,0,VALID,17.9093,VALID,104,VALID,0.550959,
2004-10-05, 03:06:00,VALID,919.009,VALID,0,VALID,94.2717,VALID,0,VALID,17.8895,VALID,99,VALID,0.20149,
2004-10-05, 03:07:00,VALID,919.01,VALID,0,VALID,94.7651,VALID,0,VALID,17.8159,VALID,99,VALID,0.133789,
2004-10-05, 03:08:00,VALID,919.028,VALID,0,VALID,95.0626,VALID,0.0509425,VALID,17.7353,VALID,88,VALID,0.354353,
2004-10-05, 03:09:00,VALID,919.015,VALID,0,VALID,95.4632,VALID,0,VALID,17.632,VALID,58,VALID,0.665153,
2004-10-05, 03:10:00,VALID,919.017,VALID,0,VALID,95.851,VALID,0,VALID,17.5257,VALID,46,VALID,0.787695,
2004-10-05, 03:11:00,VALID,918.99,VALID,0,VALID,96.3037,VALID,0.0169808,VALID,17.4056,VALID,44,VALID,0.838778,
2004-10-05, 03:12:00,VALID,918.978,VALID,0,VALID,96.7971,VALID,0,VALID,17.3415,VALID,47,VALID,1.12979,
2004-10-05, 03:13:00,VALID,918.962,VALID,0,VALID,97.0807,VALID,0.0339617,VALID,17.306,VALID,51,VALID,1.03311,
2004-10-05, 03:14:00,VALID,918.96,VALID,0,VALID,96.9306,VALID,0.0169808,VALID,17.309,VALID,56,VALID,1.09757,
2004-10-05, 03:15:00,VALID,918.979,VALID,0,VALID,96.2325,VALID,0.0339617,VALID,17.383,VALID,68,VALID,0.971912,
2004-10-05, 03:16:00,VALID,918.955,VALID,0,VALID,95.5077,VALID,-0.0169808,VALID,17.4837,VALID,76,VALID,1.04766,
2004-10-05, 03:17:00,VALID,918.955,VALID,0,VALID,95.2254,VALID,0,VALID,17.5573,VALID,73,VALID,1.00838,
2004-10-05, 03:18:00,VALID,918.938,VALID,0,VALID,95.2241,VALID,-0.101885,VALID,17.607,VALID,72,VALID,0.957919,
2004-10-05, 03:19:00,VALID,918.928,VALID,0,VALID,95.392,VALID,-0.0849042,VALID,17.6107,VALID,59,VALID,0.981213,
2004-10-05, 03:20:00,VALID,918.938,VALID,0,VALID,95.5992,VALID,-0.0849042,VALID,17.5464,VALID,56,VALID,0.941939,
2004-10-05, 03:21:00,VALID,918.942,VALID,0,VALID,95.8179,VALID,-0.0849042,VALID,17.4876,VALID,57,VALID,0.916016,
2004-10-05, 03:22:00,VALID,918.961,VALID,0,VALID,95.9591,VALID,-0.101885,VALID,17.4751,VALID,57,VALID,0.768576,
2004-10-05, 03:23:00,VALID,918.972,VALID,0,VALID,96.0417,VALID,-0.101885,VALID,17.4239,VALID,57,VALID,0.684659,
2004-10-05, 03:24:00,VALID,918.976,VALID,0,VALID,96.2503,VALID,-0.101885,VALID,17.3689,VALID,57,VALID,0.693788,
2004-10-05, 03:25:00,VALID,918.979,VALID,0,VALID,96.4715,VALID,-0.0849042,VALID,17.3301,VALID,57,VALID,0.653832,
2004-10-05, 03:26:00,VALID,918.975,VALID,0,VALID,96.7386,VALID,-0.0849042,VALID,17.2753,VALID,57,VALID,0.651163,
2004-10-05, 03:27:00,VALID,918.964,VALID,0,VALID,97.1468,VALID,-0.0849042,VALID,17.2464,VALID,57,VALID,0.746289,
2004-10-05, 03:28:00,VALID,918.977,VALID,0,VALID,97.3451,VALID,-0.0849042,VALID,17.1913,VALID,57,VALID,0.948219,
2004-10-05, 03:29:00,VALID,918.971,VALID,0,VALID,97.5168,VALID,-0.0849042,VALID,17.1268,VALID,54,VALID,1.05525,
2004-10-05, 03:30:00,VALID,918.985,VALID,0,VALID,97.6948,VALID,-0.0679233,VALID,17.0784,VALID,52,VALID,0.88891,
2004-10-05, 03:31:00,VALID,918.99,VALID,0,VALID,97.7991,VALID,-0.0849042,VALID,17.0235,VALID,52,VALID,0.603051,
2004-10-05, 03:32:00,VALID,918.995,VALID,0,VALID,98.1005,VALID,-0.0679233,VALID,17.0007,VALID,54,VALID,0.474564,
2004-10-05, 03:33:00,VALID,919.002,VALID,0,VALID,98.2861,VALID,-0.101885,VALID,16.9977,VALID,60,VALID,0.450107,
2004-10-05, 03:34:00,VALID,919.005,VALID,0,VALID,98.351,VALID,-0.0849042,VALID,17.0007,VALID,60,VALID,0.252663,